GFSMA_850_thetae_273.txt.gz
Theta_e
347 347 342 346 347 346 343 343 344 344 343 342 345 344 343 344 343 344 345 343 343 344 343 342 340 334 325 327 327 330 330 328 328 330 329 328 330 330 329 329 329 330 330
346 347 347 347 345 346 345 345 344 342 342 342 339 343 345 344 345 344 346 345 344 344 343 342 342 339 335 327 324 324 325 326 326 327 327 329 330 329 329 330 330 331 331
346 348 348 347 347 347 348 346 345 345 342 342 343 340 344 344 345 345 345 345 345 345 344 344 343 342 338 335 331 326 324 324 324 325 326 328 330 331 331 332 332 332 331
347 348 349 348 347 347 347 347 346 346 345 344 344 344 343 344 345 344 343 346 346 344 345 344 343 344 342 337 335 334 331 330 325 325 325 326 327 329 331 333 333 333 335
350 347 349 350 350 348 348 349 349 347 346 343 345 344 343 343 343 345 344 344 343 345 344 344 344 344 344 343 338 337 335 334 335 332 326 325 326 327 327 327 329 332 336
351 349 351 350 348 349 348 349 349 349 347 346 346 345 344 343 343 344 345 345 345 344 345 345 347 346 344 345 344 339 338 336 335 335 335 333 328 326 327 328 327 326 327
339 342 346 349 348 347 350 352 351 351 351 348 348 346 346 343 343 343 343 345 345 345 345 347 348 346 344 344 344 339 337 338 338 337 337 337 337 335 329 327 328 328 327
340 340 344 347 341 341 345 348 349 350 350 349 348 347 347 347 344 344 343 345 350 348 346 347 345 347 346 344 346 345 344 340 340 340 341 340 339 339 337 332 330 329 328
346 347 345 343 344 343 346 348 346 347 348 348 349 348 348 348 345 342 343 344 346 349 347 347 346 347 347 347 345 347 345 345 344 341 340 340 341 340 339 338 336 333 331
344 347 348 351 348 345 345 347 344 347 346 347 348 349 349 347 348 345 345 344 345 347 348 348 348 349 350 348 347 346 345 346 345 345 344 342 340 339 338 339 340 340 338
350 349 350 348 340 336 345 346 345 345 347 345 348 348 349 348 347 349 349 347 344 347 350 350 351 349 349 348 348 347 346 346 345 346 346 344 343 342 341 339 337 336 338
346 343 340 336 330 338 343 346 345 346 345 347 349 349 348 349 348 347 347 346 347 346 347 349 348 350 349 348 349 348 347 347 346 347 347 346 347 344 343 341 337 335 335
343 341 334 324 335 338 341 342 342 345 345 349 348 348 347 348 348 348 348 346 346 346 346 345 347 351 350 346 347 349 349 347 349 349 349 347 347 348 345 342 341 339 335
338 331 330 333 336 337 341 343 343 344 345 345 348 348 347 348 349 349 349 347 346 347 348 348 346 345 345 343 344 350 349 349 349 349 348 350 348 349 349 347 341 341 340
334 341 338 329 331 331 334 341 342 341 345 345 344 344 345 345 346 345 346 346 346 348 349 347 345 346 347 345 348 349 348 344 350 349 349 350 350 349 348 348 348 343 341
338 342 342 337 329 328 329 339 343 342 335 338 345 344 344 345 344 342 342 344 345 348 347 346 345 345 346 349 349 347 347 346 347 350 349 349 346 346 346 345 346 346 343
344 342 341 339 332 331 336 335 336 332 327 325 332 343 343 343 343 343 342 343 343 343 343 343 344 345 342 341 345 346 345 345 343 344 341 345 347 348 345 346 344 343 344
345 342 340 337 333 331 336 338 335 330 324 323 327 332 337 338 339 342 343 343 341 342 341 342 344 342 342 343 344 345 345 343 341 344 343 344 348 349 349 349 348 344 343
340 340 339 340 338 335 338 337 336 332 326 323 326 335 336 339 339 339 337 335 335 340 340 341 341 342 343 344 344 344 345 344 345 341 341 342 346 340 349 349 348 347 344
340 337 338 339 338 338 339 339 337 335 331 326 324 331 333 336 335 337 339 340 339 337 337 339 341 340 339 339 340 341 341 341 342 344 345 347 346 347 347 347 349 348 348
340 340 339 338 336 335 339 338 338 336 332 325 325 329 334 333 331 334 337 338 339 339 339 339 337 337 340 340 338 337 339 341 341 344 346 347 346 346 346 349 348 348 347
340 339 338 336 336 338 338 336 334 331 329 328 330 328 329 329 333 333 331 335 338 339 340 341 338 338 337 336 334 336 339 340 339 336 341 343 347 347 346 346 344 347 347
340 338 336 334 331 328 326 324 325 329 328 331 331 329 327 328 329 330 329 329 332 337 336 336 338 339 338 337 339 337 336 339 339 338 336 339 341 342 344 344 347 347 345
330 324 321 324 326 327 328 329 328 327 326 325 324 324 324 324 327 328 328 328 329 331 334 335 337 340 340 339 339 337 336 338 339 341 341 336 335 332 340 344 345 345 343
316 324 324 325 327 329 326 325 325 325 325 324 323 322 322 323 325 326 328 328 328 328 330 333 333 333 335 339 340 338 336 336 338 338 340 340 340 338 333 334 340 342 344
325 326 324 325 324 323 323 322 319 314 312 311 310 311 313 317 320 322 324 325 326 326 327 327 327 328 330 332 332 335 335 334 336 337 335 340 340 340 339 333 336 340 339

GFSMA_850_thetae_276.txt.gz
Theta_e
346 347 347 343 346 346 345 341 344 343 344 342 343 341 341 342 343 343 338 343 343 343 342 342 339 335 329 325 327 329 329 331 332 333 335 333 331 332 334 334 335 333 332
346 345 346 346 347 346 346 345 344 343 343 343 342 340 344 344 343 345 342 344 344 343 343 343 343 341 338 332 326 327 329 329 327 329 330 330 333 334 333 330 330 329 329
348 347 347 347 346 347 347 347 346 345 344 342 341 343 339 341 345 344 343 344 345 344 343 343 342 342 342 339 335 327 324 325 326 326 327 329 330 329 328 329 329 330 331
348 348 348 347 348 348 347 347 347 346 346 346 345 343 343 342 343 344 343 345 345 345 344 344 343 343 342 344 339 335 330 324 324 324 325 326 328 329 330 330 331 331 331
340 342 347 348 349 349 348 347 347 348 347 346 344 344 345 345 344 343 344 345 345 344 345 344 344 344 344 343 343 339 335 334 329 325 324 324 325 327 329 331 332 333 333
345 338 341 347 346 348 348 348 349 350 348 348 347 347 346 345 343 343 342 344 345 345 344 344 344 343 342 343 343 344 340 336 335 332 332 330 325 325 326 326 327 328 330
338 344 343 345 347 346 343 343 345 348 349 349 349 349 348 347 346 344 343 342 344 345 345 346 345 345 346 344 343 343 344 343 338 336 335 334 334 331 326 325 327 327 326
347 346 343 342 343 342 341 345 347 345 345 348 349 349 349 348 346 346 345 342 343 344 345 345 346 345 346 346 346 344 344 343 338 337 337 337 336 336 336 334 330 327 327
346 344 343 342 343 342 339 344 345 344 345 347 346 347 349 348 347 346 345 343 342 344 345 347 346 347 347 345 345 345 344 343 344 341 340 339 339 338 339 337 338 336 329
346 347 349 346 342 337 339 344 345 345 345 346 345 345 347 348 348 348 345 344 342 343 343 345 346 345 346 346 346 347 347 345 346 345 343 341 340 340 340 341 340 339 338
344 347 341 337 335 337 341 342 341 342 346 345 349 348 348 348 348 348 348 346 346 345 344 345 347 347 348 347 347 347 348 348 346 345 345 345 343 343 342 340 339 339 339
342 340 331 333 337 336 339 340 342 343 344 344 348 348 349 350 348 348 348 347 347 346 346 346 347 348 347 348 348 348 348 347 348 347 346 346 345 346 344 342 341 340 339
340 331 326 329 333 333 334 340 342 341 345 345 345 346 347 348 348 348 348 347 346 345 346 345 345 345 347 346 348 347 347 348 349 348 346 346 346 346 346 345 344 342 341
329 330 330 326 325 324 328 336 340 338 335 343 344 343 343 346 347 347 348 345 345 340 337 340 345 347 347 346 346 345 341 339 347 349 348 347 348 348 348 346 347 345 342
337 338 336 335 328 327 326 337 339 333 330 329 341 343 343 344 343 343 343 345 346 344 342 342 345 346 346 345 346 346 344 346 348 347 345 347 346 348 348 348 347 348 348
343 342 340 333 331 328 335 336 334 331 323 322 326 337 342 342 342 343 342 342 343 344 344 345 345 344 343 343 344 346 346 345 346 343 342 342 339 345 348 348 349 349 348
344 343 339 338 336 333 335 336 336 332 324 322 324 328 334 335 338 341 342 342 341 342 342 343 343 344 344 344 343 344 344 345 346 346 345 346 342 343 347 347 346 345 346
345 339 336 338 336 337 336 338 338 336 332 326 322 329 334 337 338 337 337 336 336 337 342 340 340 341 341 342 344 344 343 344 345 345 340 341 344 343 342 344 347 345 345
339 337 336 338 337 336 335 338 337 337 335 327 322 325 330 334 334 334 337 339 340 340 338 338 338 340 341 341 340 338 340 342 342 342 344 344 342 341 343 343 345 346 347
336 335 338 337 336 335 336 339 337 336 332 326 328 327 332 333 330 332 335 336 338 339 338 338 339 337 336 337 339 339 338 336 339 341 342 343 343 342 342 346 341 347 347
337 337 337 336 336 336 337 336 333 328 327 326 329 330 328 326 328 331 332 331 332 336 337 339 340 340 336 336 337 336 337 337 339 340 340 343 345 344 346 345 345 346 346
339 339 337 335 332 325 325 325 327 329 328 328 326 324 324 324 325 327 328 329 329 335 336 337 336 336 337 337 337 337 339 338 337 339 339 337 339 343 346 346 345 346 347
334 326 321 321 324 326 327 328 327 326 325 325 324 323 322 323 322 321 325 327 328 329 335 334 334 335 337 338 339 339 338 338 336 338 340 339 336 334 338 338 342 345 346
317 319 323 325 326 326 325 323 319 314 312 311 311 310 311 315 319 321 322 323 325 326 328 330 331 331 332 333 333 335 339 340 336 333 337 339 341 340 337 335 338 342 343
321 324 325 324 323 322 317 311 310 310 311 311 311 311 311 311 311 311 313 316 318 319 322 326 326 327 327 329 329 329 334 336 337 333 332 339 339 339 339 340 335 333 337
324 323 323 321 319 312 310 311 311 311 311 311 311 311 311 312 313 316 317 318 319 321 319 318 319 320 320 321 324 326 329 334 335 336 332 334 333 338 340 337 338 335 334

GFSMA_850_thetae_279.txt.gz
Theta_e
346 347 346 347 345 343 345 343 341 342 343 344 343 342 340 335 338 338 342 336 339 342 338 341 341 328 327 329 330 329 331 333 334 334 335 335 331 331 332 333 334 333 334
348 347 346 346 345 345 346 346 345 343 343 344 344 343 342 339 340 342 342 337 339 341 343 342 342 341 337 334 329 327 328 328 330 332 334 340 338 332 331 333 332 333 336
347 349 348 347 347 347 346 346 347 346 345 344 344 343 342 341 342 343 342 342 340 341 343 343 344 343 342 341 337 331 326 328 328 328 330 331 338 341 341 337 329 329 330
347 343 342 344 346 346 347 346 346 346 346 345 345 345 344 342 343 341 344 343 343 342 343 343 342 342 342 342 342 340 334 329 325 326 326 327 329 331 335 332 329 329 329
341 346 341 344 344 346 348 347 347 346 346 346 346 346 345 344 344 344 343 344 344 343 343 344 343 343 342 342 342 343 342 337 332 326 324 325 326 328 329 334 330 330 330
345 340 343 344 345 346 346 344 342 343 343 345 347 347 348 347 346 345 344 343 343 343 344 344 343 344 343 343 343 344 343 343 338 334 332 325 324 324 326 328 330 330 331
345 346 344 344 346 346 342 339 344 347 345 343 346 347 347 348 347 347 346 343 342 342 343 343 343 343 343 344 342 341 342 343 343 339 335 334 330 329 325 324 325 326 327
347 344 343 341 341 342 340 340 343 345 343 343 346 346 346 346 346 347 347 345 345 343 342 343 344 344 343 343 344 345 343 342 343 343 342 337 335 333 333 331 326 325 326
347 345 347 341 342 340 338 341 344 345 343 344 345 346 346 347 347 347 347 345 345 345 343 343 343 344 344 344 344 345 344 343 343 344 343 338 337 337 335 334 334 334 333
349 345 345 340 336 334 339 342 342 342 344 345 344 348 348 346 346 347 347 345 344 344 343 343 344 344 346 346 346 345 345 345 344 343 343 343 340 339 340 339 337 336 337
344 342 336 333 334 333 338 341 341 342 344 344 345 346 348 349 348 347 348 347 346 345 345 343 344 345 345 347 346 345 345 345 346 346 344 344 344 343 341 340 340 340 340
341 333 328 330 334 333 334 338 340 340 343 344 344 344 346 348 349 350 348 347 347 347 347 346 346 346 346 347 346 347 347 346 346 346 346 346 345 344 344 344 343 341 340
336 327 325 325 325 325 329 337 340 338 333 334 343 342 343 345 347 348 349 348 348 346 344 343 345 345 345 345 347 345 344 346 346 347 346 347 347 346 346 345 345 344 343
330 334 335 332 327 329 330 338 333 327 322 325 337 343 343 344 343 343 346 347 348 345 345 343 342 341 342 346 346 345 345 346 346 342 344 347 347 347 347 346 346 345 344
340 341 339 331 330 329 334 333 333 328 322 322 326 334 340 341 342 342 342 342 345 346 343 344 344 342 339 344 346 346 345 346 346 344 344 345 347 346 346 347 347 346 346
343 343 338 337 335 334 335 335 335 333 325 321 323 328 331 334 338 342 341 343 342 342 343 343 343 343 342 343 343 343 344 342 345 344 343 345 343 342 343 341 344 347 347
345 342 337 337 337 336 336 338 337 336 334 325 318 325 332 335 334 335 337 336 336 337 339 340 341 340 341 341 344 343 343 342 344 344 342 343 345 341 342 343 341 342 344
341 340 336 336 336 336 335 337 336 335 335 328 320 321 326 330 333 334 334 337 339 340 340 337 336 337 339 342 342 342 344 343 344 342 345 345 345 344 343 342 342 342 346
340 338 336 337 336 335 334 336 336 335 333 325 324 328 327 330 331 330 331 334 336 337 339 339 337 337 337 336 337 338 339 339 340 341 342 342 344 344 340 341 342 342 341
339 336 336 336 336 335 336 335 334 328 323 325 328 329 328 327 325 326 328 330 331 332 334 336 338 339 338 337 337 337 337 337 338 338 339 340 342 342 344 343 341 341 341
337 337 336 336 334 330 323 322 322 324 325 324 324 324 322 322 323 324 325 326 328 328 330 333 335 336 336 336 337 337 338 335 334 336 336 339 339 339 343 344 342 342 343
337 336 332 323 317 319 324 325 325 325 323 322 320 318 318 319 318 319 320 322 326 327 328 331 333 334 334 335 337 337 337 338 338 333 334 339 339 338 336 339 344 345 345
332 323 319 321 320 321 322 321 315 310 310 310 310 310 310 310 310 310 311 316 319 322 325 326 327 328 331 332 332 332 331 330 334 338 338 334 335 338 339 336 337 337 339
318 320 323 322 321 319 311 310 310 310 311 311 311 311 311 311 312 312 312 312 311 313 317 320 323 325 326 327 328 329 328 328 329 333 335 337 332 332 337 341 339 336 335
321 323 322 320 314 310 311 311 311 311 311 311 311 311 311 311 311 311 312 312 313 314 317 321 320 319 319 320 321 322 325 326 326 329 332 334 333 330 331 334 338 338 338
321 321 320 312 310 310 309 309 309 309 308 308 308 308 309 310 310 310 311 311 311 314 315 318 321 324 326 325 324 326 328 331 331 329 331 334 334 333 336 333 335 336 338

GFSMA_850_thetae_282.txt.gz
Theta_e
346 346 346 346 346 346 345 344 341 340 341 342 337 337 342 342 341 333 332 331 337 336 339 341 336 338 325 327 329 329 332 334 333 332 333 333 332 333 333 334 336 337 336
346 347 347 347 347 344 345 345 345 344 344 342 343 343 343 342 341 335 338 336 340 338 338 342 339 340 341 330 328 326 327 329 332 334 334 335 332 331 331 332 333 333 332
345 346 347 347 346 347 344 346 345 345 346 346 345 344 343 342 342 339 338 341 342 340 337 340 343 341 342 341 339 334 329 326 328 330 333 334 337 334 330 330 332 331 331
342 342 343 341 343 345 344 346 346 346 345 345 345 344 345 345 343 342 341 342 342 342 339 339 342 342 343 343 342 341 336 333 327 328 329 331 333 336 337 338 337 331 328
346 346 340 343 344 345 345 347 346 346 344 344 345 345 344 345 345 344 343 343 342 343 343 342 341 342 342 341 341 342 341 340 335 330 325 327 327 329 332 332 332 331 328
345 342 345 342 345 345 346 345 342 343 345 345 343 344 345 346 345 346 345 344 343 343 343 342 342 343 343 342 341 342 342 342 342 337 333 327 324 325 326 329 334 333 331
344 347 343 342 341 343 342 341 340 342 345 344 343 343 344 344 345 346 346 346 345 343 342 342 343 343 343 342 342 342 342 342 343 343 341 336 333 326 324 324 325 327 329
347 345 343 343 340 342 340 338 344 344 344 343 344 345 344 344 345 345 346 347 347 346 344 342 342 342 343 342 342 342 343 342 341 342 343 343 338 334 331 326 325 324 325
346 344 343 343 342 338 335 336 341 342 341 342 344 344 346 346 344 345 345 346 347 347 346 345 345 343 343 344 343 343 343 343 343 342 342 343 343 341 336 334 332 332 327
344 344 342 339 334 330 330 337 339 341 341 343 343 345 346 346 347 345 346 346 346 344 345 344 344 343 344 343 344 344 344 344 345 343 342 344 344 343 340 338 336 335 334
343 342 337 326 330 331 332 335 339 340 342 344 343 343 344 345 348 348 347 345 345 345 345 344 343 343 344 346 345 344 346 345 345 346 345 344 344 343 343 339 337 337 338
339 332 322 323 324 324 330 337 339 337 333 332 342 343 343 344 345 348 348 349 348 346 346 346 346 345 346 346 346 347 347 346 345 345 345 345 346 344 344 345 344 341 340
330 326 329 327 325 325 330 337 333 327 322 324 333 342 342 343 343 343 346 347 347 347 346 346 344 343 344 345 345 346 346 344 346 346 346 346 346 346 346 345 345 344 343
332 338 337 331 328 331 334 333 333 326 321 322 325 331 339 341 342 342 342 343 343 346 345 344 344 343 342 342 342 345 345 345 344 344 345 346 345 345 346 346 345 345 345
340 341 338 336 334 334 335 334 335 334 328 321 322 326 328 334 338 341 342 343 342 342 341 342 343 343 343 341 340 342 345 342 345 342 345 345 343 343 344 344 346 346 346
343 343 338 337 337 335 335 336 335 333 333 330 321 320 329 332 333 335 337 337 337 339 343 341 340 341 340 341 342 343 343 343 344 345 345 344 345 344 345 345 344 344 346
343 342 339 336 337 336 335 336 336 335 333 331 322 321 325 330 332 333 333 334 337 338 338 336 336 336 337 339 341 340 344 342 343 342 343 343 344 343 342 344 343 342 343
342 340 338 335 336 335 334 334 334 334 333 327 321 323 324 325 328 330 330 331 334 335 337 337 336 335 336 337 336 338 341 343 342 340 341 344 343 345 345 344 345 343 344
341 339 337 337 336 335 334 335 334 332 325 324 326 327 325 324 324 323 323 326 328 330 331 334 336 336 336 336 336 335 336 337 338 339 339 338 340 342 341 343 344 343 343
339 339 336 336 335 334 332 328 321 322 325 325 324 323 322 321 319 319 320 321 322 325 327 328 330 332 334 335 336 337 336 334 334 335 336 337 337 338 340 342 342 343 341
340 338 337 335 328 319 319 322 323 323 321 319 317 315 313 312 313 316 317 317 319 319 323 325 326 328 330 332 333 335 335 335 335 334 333 332 333 338 339 338 340 342 343
337 337 329 319 319 320 322 321 315 310 310 310 310 310 310 310 310 310 310 310 311 314 317 319 321 324 326 327 327 329 330 331 331 331 333 334 335 333 338 338 336 337 343
334 327 317 319 320 318 312 310 310 311 311 311 311 311 311 311 312 312 312 312 312 313 315 316 318 319 321 322 324 326 326 326 327 329 330 330 332 336 333 331 337 338 336
325 318 320 320 315 310 310 311 311 310 310 310 309 309 309 310 310 310 310 311 312 312 314 315 318 322 323 321 320 320 322 322 321 323 325 328 329 331 334 330 329 336 340
319 320 320 313 310 310 310 309 308 307 307 307 306 306 306 306 307 308 308 309 309 309 311 312 314 316 321 325 326 326 325 326 326 326 328 327 325 328 332 332 328 329 337
319 319 315 309 309 308 308 307 308 307 306 307 307 308 308 307 306 306 307 308 308 308 308 309 310 311 316 318 322 324 324 324 325 326 328 331 331 332 335 333 332 333 337

GFSMA_850_thetae_285.txt.gz
Theta_e
346 346 347 346 346 346 344 344 345 343 340 340 340 338 335 334 341 343 341 333 332 338 340 337 340 339 334 326 331 340 338 336 333 332 331 332 332 333 334 334 335 337 334
345 346 346 346 347 346 341 342 344 346 344 342 342 342 342 343 342 340 341 341 331 331 335 338 339 340 338 337 326 331 340 341 338 333 332 333 332 333 333 334 334 336 335
344 344 345 343 342 342 346 341 343 346 345 346 346 345 345 344 344 343 341 338 341 337 337 341 336 341 339 336 337 331 329 329 338 340 332 333 334 332 331 331 332 333 333
345 343 345 341 343 343 344 345 345 346 346 344 345 345 343 341 344 345 343 341 340 338 342 341 338 339 342 341 341 338 338 336 329 337 336 330 332 333 333 330 330 331 333
345 346 343 344 342 345 345 346 344 343 344 344 343 344 344 345 344 344 344 344 342 342 343 342 341 337 338 342 342 343 342 340 338 336 330 331 329 330 332 335 335 336 335
345 345 346 342 341 345 344 343 342 342 343 346 344 342 341 341 343 345 345 345 345 344 343 342 343 343 342 341 342 342 342 341 342 340 335 330 327 328 328 329 331 330 331
346 345 345 344 341 342 341 339 338 340 342 344 344 344 345 342 344 345 346 346 345 346 345 345 344 345 347 342 342 342 341 342 342 343 342 338 333 327 325 326 326 327 331
345 346 344 345 339 341 340 338 338 342 341 342 344 345 347 347 348 346 346 346 346 347 347 345 344 343 343 346 346 342 343 342 342 342 342 343 341 338 333 328 325 325 325
345 343 343 342 341 337 332 334 336 338 341 342 344 345 346 346 345 347 346 345 346 346 347 347 347 345 343 342 342 343 342 342 342 342 341 342 343 344 342 337 333 328 325
346 344 343 338 328 327 330 334 336 337 340 344 344 343 344 345 346 347 346 346 346 346 346 346 345 346 346 345 343 343 344 343 342 343 343 343 342 342 343 343 340 335 333
344 342 333 323 324 324 329 334 338 337 336 333 339 343 343 343 344 346 348 348 346 346 345 346 345 343 344 343 343 344 344 344 344 344 344 344 343 341 343 343 344 342 339
340 328 323 324 324 324 329 336 334 329 323 325 331 340 342 343 344 344 345 347 348 348 347 346 345 345 344 344 346 345 346 346 344 346 346 345 345 345 344 344 344 343 340
328 330 331 330 328 329 333 333 332 327 321 321 323 329 337 340 342 343 343 344 345 344 347 346 345 345 345 343 343 344 345 346 347 346 345 345 344 345 345 345 344 343 344
332 337 336 334 332 333 333 334 334 334 329 322 320 325 329 333 336 340 342 343 345 346 344 343 343 344 344 343 343 343 344 345 346 346 345 346 345 345 345 346 346 345 344
338 338 335 336 336 334 335 335 335 334 332 332 326 319 326 332 334 335 337 339 341 342 343 345 343 341 342 342 343 341 341 343 344 344 342 344 344 345 345 345 345 345 346
342 342 339 336 337 336 336 335 335 334 333 332 327 320 322 327 331 333 333 334 336 340 340 341 342 340 337 338 340 341 342 342 342 343 343 344 344 343 345 344 343 344 346
341 342 340 337 336 337 336 335 335 335 332 329 321 321 324 325 326 329 330 331 333 334 336 337 335 338 336 337 337 337 340 341 343 342 343 343 343 344 344 345 344 344 344
343 340 339 336 336 336 335 335 335 334 330 323 324 325 324 323 322 323 324 324 327 329 331 332 332 333 336 337 336 335 336 336 338 341 339 338 339 342 344 344 344 343 342
343 340 339 337 337 335 334 333 331 323 323 325 324 322 322 320 319 318 319 319 320 321 324 327 329 329 333 335 334 336 334 333 334 335 336 337 338 338 338 339 341 343 343
340 339 338 337 335 330 321 318 321 323 321 317 314 313 311 310 310 310 311 311 311 314 317 320 324 327 329 330 330 335 335 336 335 334 333 333 333 333 334 336 338 340 342
340 339 338 333 320 318 320 320 319 312 310 310 310 310 311 311 311 311 312 312 312 312 312 315 320 321 323 324 326 327 328 329 329 331 336 336 338 334 333 337 339 339 339
340 337 331 319 318 319 315 310 310 311 311 311 311 311 311 311 311 311 312 312 312 312 314 315 316 319 322 322 321 323 323 325 326 327 330 327 329 332 333 337 333 336 338
337 331 320 318 317 311 310 311 311 311 310 309 309 308 308 308 308 309 309 309 310 311 312 313 314 315 316 320 321 325 325 324 324 325 325 325 325 327 330 332 332 333 331
331 321 319 317 310 310 310 309 308 308 307 306 306 306 306 306 305 306 307 308 308 309 309 309 310 311 313 316 318 321 323 323 325 325 328 328 329 328 329 331 332 330 332
324 318 318 310 310 309 308 307 307 306 307 307 308 309 308 307 306 306 306 307 307 307 308 309 309 310 310 311 314 317 319 321 322 323 324 328 330 333 333 335 335 336 332
320 319 312 309 308 308 308 308 307 307 308 309 310 310 310 309 309 308 307 307 307 307 308 309 310 310 310 310 310 311 312 313 314 317 323 323 324 326 329 330 334 338 339